Flag for Guyana Weather past 2 weeks in Georgetown, Guyana

Now
72 °F

Fog.


Feels Like: 65 °F
Forecast: 80 / 88 °F
Wind: No wind

Location: Georgetown/Cheddi Jagan International Airport

Current Time: Oct 1, 2014 at 3:52:22 AM

Latest Report: Oct 1, 2014 at 3:00 AM


Visibility: 1 mi

Pressure: 29.92 "Hg

Humidity: 100%

Dew point: 72 °F

Location of GeorgetownLocation

Historic Weather in Georgetown — Graph

°F

Georgetown temperature yesterday

Maximum temperature yesterday: 91 °F (at 12:00 PM)
Minimum temperature yesterday: 72 °F (at 5:00 AM)
Average temperature yesterday: 82 °F

Past Weeks' High & Low Weather Summary

 TemperatureHumidityPressure
High93 °F (Sep 17, 1:00 PM)100% (Sep 16, 4:00 AM)29.98 "Hg (Sep 16, 4:00 AM)
Low72 °F (Sep 19, 5:00 AM)47% (Sep 25, 1:00 PM)29.77 "Hg (Sep 18, 4:00 PM)
Average81 °F83%29.89 "Hg
* Reported Sep 16 2:00 AM — Oct 1 2:00 AM, Georgetown, Weather by CustomWeather, © 2014

Note: Actual official high and low records may vary slightly from our data, if they occured in-between our weather recording intervals... More about our weather records

Advertising

Georgetown weather history for previous 24 hours

 ConditionsComfort  
Time TempWeatherWind HumidityBarometerVisibility
2:00 AM
Oct 1
73 °FFog.N/A100%29.92 "Hg1 mi
1:00 AM73 °FFog.No wind100%29.92 "Hg1 mi
12:00 AM75 °FClear.2 mph94%29.92 "Hg10 mi
11:00 PM
Sep 30
75 °FClear.No wind94%29.95 "Hg10 mi
10:00 PM77 °FClear.2 mph94%29.95 "Hg10 mi
9:00 PM77 °FClear.2 mph94%29.95 "Hg10 mi
8:00 PM79 °FClear.5 mph89%29.95 "Hg10 mi
7:00 PM81 °FClear.7 mph84%29.92 "Hg10 mi
6:00 PM82 °FPassing clouds.9 mph74%29.92 "HgN/A
5:00 PM86 °FPartly sunny.8 mph66%29.89 "HgN/A
4:00 PM88 °FPassing clouds.12 mph59%29.86 "HgN/A
3:00 PM90 °FScattered clouds.15 mph55%29.86 "HgN/A
2:00 PM90 °FPartly sunny.14 mph55%29.89 "HgN/A
1:00 PM91 °FPartly sunny.12 mph56%29.89 "HgN/A
12:00 PM91 °FPartly sunny.7 mph52%29.92 "HgN/A
11:00 AM90 °FPartly sunny.9 mph55%29.98 "HgN/A
10:00 AM90 °FPartly sunny.9 mph63%29.98 "HgN/A
9:00 AM86 °FPartly sunny.12 mph75%29.98 "HgN/A
8:00 AM84 °FScattered clouds.7 mph79%29.98 "HgN/A
7:00 AM75 °FPassing clouds.No wind94%29.95 "HgN/A
6:00 AM72 °FScattered clouds.5 mph100%29.95 "HgN/A
5:00 AM72 °FPassing clouds.No wind100%29.92 "HgN/A
4:00 AM73 °FPassing clouds.No wind94%29.92 "HgN/A
Weather by CustomWeather, © 2014

See weather overviewHow to use our weather pages